Location: Bukit Setapoh
(2.2500°N, 113.8000°E)
Time: 00:07:54
(UTC+00:00)

Cosmos 1464 Rocket - Pass Details

Date: 25 July 2021
Orbit: 951 x 1002 km, 82.9° (Epoch: 22 September)

Event Time Altitude Azimuth Distance (km) Brightness Sun altitude
Rises 11:21:36 0° 8° (N) 3,657 7.2 -11.0°
Reaches altitude 10° 11:24:13 10° 14° (NNE) 2,704 6.4 -11.7°
Maximum altitude 11:30:06 46° 87° (E) 1,262 4.2 -13.0°
Drops below altitude 10° 11:35:57 10° 159° (SSE) 2,684 5.9 -14.4°
Enters shadow 11:37:34 - 163° (SSE) 3,272 6.4 -14.8°
